Wind_Speed
15 15 14 14 14 14 15 14 15 15 15 15 15 15 15 16 16 17 17 18 18 18 18 17 16 16 16 17 19 19 19 20 19 21 26 20 11 13 14 13 15 16 17 15 13 21 26 25 26 26 25 23 17 17 21 18 13 9 3 3 5 4 4 4 4 4 4 5 9 17 24 20 14 14 15 14 14 24 22 10 16 9 6 21 18 28 37 32
16 16 15 15 15 15 15 15 16 16 16 16 16 16 16 16 16 16 17 18 19 19 18 17 16 16 16 17 18 19 20 20 21 25 20 10 7 15 17 17 19 20 20 19 17 22 29 30 29 28 26 21 15 15 15 16 16 10 3 2 5 5 5 5 6 4 4 9 9 17 27 25 19 21 22 14 12 19 15 10 14 13 16 19 21 33 34 33
17 17 17 16 16 16 16 16 16 17 17 17 17 17 17 17 17 17 17 18 19 19 19 17 15 15 16 17 17 18 19 20 24 22 10 4 9 15 18 23 25 24 23 21 17 19 24 27 29 27 23 17 15 15 13 13 14 13 8 3 7 8 6 10 10 7 1 15 14 14 24 22 22 27 22 15 14 14 12 16 17 19 24 24 30 36 33 35
18 18 18 18 17 17 17 17 17 17 17 17 17 17 17 17 17 17 17 18 19 19 19 17 15 15 15 16 16 16 17 18 19 10 2 4 6 10 18 28 31 27 24 20 16 15 17 22 28 26 19 12 14 14 12 13 11 10 11 6 7 4 4 14 14 8 2 18 21 17 17 15 24 26 22 21 14 6 12 26 29 28 33 35 37 36 36 37
19 19 19 19 19 18 18 18 18 18 18 18 18 18 18 17 17 17 17 18 19 19 20 18 15 14 15 16 15 14 13 10 5 1 2 4 5 4 16 29 33 28 23 18 15 14 16 21 27 23 15 9 11 11 12 20 14 6 11 14 12 6 5 18 17 7 2 17 19 17 16 17 24 21 25 28 14 11 23 32 35 35 40 42 42 40 39 38
20 20 20 20 19 19 19 19 19 19 19 19 19 19 18 18 18 17 18 18 18 19 19 18 16 14 14 15 14 13 7 4 5 2 2 3 8 4 13 29 31 26 21 17 15 17 19 22 24 21 13 8 8 10 10 19 18 8 10 14 16 11 9 22 25 17 2 13 14 15 21 25 22 15 28 32 19 23 33 35 35 35 41 44 44 43 42 41
20 20 20 21 20 20 20 20 20 20 21 21 21 21 20 19 18 17 18 17 18 19 19 19 16 14 14 14 15 13 9 14 13 6 6 1 5 2 15 27 25 22 20 17 16 19 22 22 24 21 12 6 7 12 14 14 16 11 10 10 14 13 15 24 27 26 14 11 20 22 21 23 20 14 25 26 17 23 31 34 35 36 41 42 43 43 43 43
20 20 20 20 21 21 21 21 21 21 21 21 22 21 21 20 19 19 18 18 18 18 19 18 16 15 14 13 13 11 14 20 13 4 10 8 4 3 16 25 22 20 19 19 20 20 22 23 24 20 10 9 9 9 12 10 10 11 11 12 14 16 22 27 26 26 19 13 24 25 19 24 28 22 24 20 12 22 32 34 35 38 40 41 43 43 42 42
20 21 21 21 21 21 22 22 22 21 21 21 22 22 21 21 20 19 18 19 18 18 19 17 16 16 13 13 10 9 16 16 7 4 12 13 9 7 14 22 21 21 19 19 21 20 22 23 26 21 9 10 11 8 7 6 6 10 14 15 15 17 24 27 26 26 19 15 21 20 15 23 28 21 16 16 17 27 34 35 37 40 40 40 42 42 42 42
21 21 21 21 21 21 22 22 22 22 22 22 22 22 21 21 20 20 20 19 18 18 19 17 16 15 14 13 6 5 14 10 5 7 8 13 13 12 15 20 20 20 20 20 22 23 24 23 26 25 12 9 9 11 9 8 6 8 15 17 17 21 26 27 25 28 21 15 23 19 13 18 23 17 7 13 25 31 35 36 39 41 40 40 40 41 42 42
22 22 22 22 21 21 21 21 22 22 22 23 23 23 21 20 20 20 21 20 19 19 18 17 16 15 15 13 10 10 14 12 7 5 7 10 11 14 17 19 20 19 19 20 22 23 24 22 23 21 12 9 9 11 11 13 11 14 16 14 16 19 23 24 20 25 17 11 26 22 10 11 17 13 10 22 33 35 38 37 38 41 40 40 40 40 41 42
22 23 23 22 22 22 21 21 21 21 22 23 24 23 21 20 20 20 21 20 19 18 18 17 15 16 14 16 24 21 12 9 8 6 7 6 6 10 15 20 20 19 19 19 19 19 19 20 22 20 12 8 6 5 9 13 12 14 13 7 11 9 11 16 12 19 15 8 24 21 7 6 12 10 16 32 37 38 40 38 38 40 39 39 39 40 41 42
23 23 23 23 23 22 22 22 21 21 21 22 22 22 21 20 20 20 20 19 19 18 18 16 15 16 13 17 29 27 16 13 14 13 8 5 6 8 13 20 22 21 20 19 17 16 17 18 22 25 22 11 4 5 11 16 13 10 7 4 6 5 6 10 8 14 13 10 24 20 3 7 9 9 24 36 39 39 36 36 38 37 38 38 38 39 41 42
25 25 25 25 24 23 23 23 22 22 21 21 20 20 20 19 19 18 17 17 18 17 17 15 15 14 14 22 29 25 21 21 23 23 17 13 12 11 12 16 21 24 23 21 19 17 17 18 22 24 24 20 13 12 13 13 9 5 4 3 3 3 7 8 5 7 7 11 27 20 5 9 7 10 28 37 41 41 34 35 37 36 37 38 38 39 41 43
25 26 26 26 26 25 24 24 24 23 22 21 19 18 18 17 15 14 13 14 14 15 15 13 13 11 13 24 27 21 19 21 23 25 24 21 20 18 16 16 19 22 23 23 20 16 15 17 21 18 16 19 17 11 7 5 4 2 3 4 2 3 6 9 5 6 6 8 24 19 5 5 5 11 30 37 40 40 35 35 36 36 37 38 39 39 40 42
25 26 26 27 27 27 26 25 25 24 23 22 19 17 14 12 10 9 9 8 8 10 10 9 12 10 8 15 16 13 15 18 17 18 21 24 25 24 21 19 19 20 22 22 19 18 16 15 19 18 13 12 8 4 4 5 4 2 3 4 4 4 4 7 6 6 10 7 14 15 5 2 3 13 29 35 38 37 33 33 35 36 37 38 38 38 39 39
25 25 26 26 26 27 27 26 26 24 22 21 18 13 10 9 7 5 2 3 5 5 5 5 6 7 11 14 11 11 12 12 11 11 16 22 27 27 23 21 21 21 22 22 22 19 16 15 14 12 11 7 3 4 4 7 6 3 2 4 4 4 4 5 6 6 6 8 10 12 7 4 6 16 26 32 36 34 30 32 35 36 36 37 37 38 39 39
26 26 26 26 26 27 26 27 27 25 23 20 17 12 8 7 5 2 1 5 8 4 3 5 7 2 11 15 14 13 10 6 6 8 11 14 22 28 26 24 23 22 19 16 18 18 15 13 9 5 5 6 5 6 7 7 5 3 4 4 4 3 4 6 6 6 1 8 12 11 6 5 6 15 24 31 36 33 30 34 35 36 36 36 36 37 39 40
28 28 28 27 27 27 26 27 26 26 24 17 14 10 7 7 5 4 3 9 9 4 5 7 12 4 7 10 11 11 9 7 7 9 11 11 17 25 27 26 24 21 12 5 8 13 13 6 6 7 6 8 8 8 9 6 3 5 5 4 4 4 5 7 7 4 3 7 10 11 10 7 9 15 20 28 34 31 29 31 32 33 34 35 35 37 39 41
30 30 29 29 28 27 27 26 27 27 22 15 14 9 6 10 5 3 12 22 20 15 16 17 19 20 22 20 17 13 12 12 11 11 12 10 15 24 27 25 20 16 9 5 5 10 12 6 6 9 7 7 7 7 8 6 7 8 5 5 7 5 7 9 5 4 4 5 6 10 11 10 14 17 18 27 30 24 23 25 27 31 33 34 36 37 40 44
32 31 31 31 29 29 27 26 28 24 17 16 15 9 10 13 6 7 21 27 24 20 23 27 27 32 35 33 29 23 17 15 14 15 12 10 15 20 23 21 12 8 8 9 7 6 9 9 9 8 6 6 7 6 6 6 8 8 6 6 8 6 9 10 5 4 4 3 5 7 7 9 15 17 17 23 23 20 24 26 27 32 33 35 37 39 42 44
33 32 33 32 30 31 27 27 28 18 15 16 11 10 12 13 8 10 15 18 26 28 28 31 32 38 41 38 36 30 19 13 16 20 16 14 19 19 19 18 9 6 7 8 6 4 6 10 9 7 6 6 5 6 6 6 7 7 6 5 7 8 7 8 6 5 4 4 5 6 7 9 11 14 16 21 22 24 32 35 34 37 35 35 38 40 42 41
32 32 33 32 32 32 27 28 23 11 16 15 5 9 13 13 10 13 11 12 24 29 28 32 35 40 41 38 35 28 20 15 17 23 21 17 23 24 19 14 9 7 7 8 9 7 6 8 8 8 7 7 7 6 6 5 5 5 6 4 8 9 4 5 5 3 2 3 5 6 7 5 5 6 10 20 26 26 32 35 35 38 39 41 45 45 44 42
31 31 33 33 33 31 28 27 14 8 20 13 1 7 13 13 12 15 14 9 13 17 22 27 29 35 38 32 25 25 26 21 18 24 25 21 23 23 19 15 11 8 8 11 13 11 8 5 9 10 7 9 9 8 6 5 5 6 7 7 10 11 7 6 3 7 6 5 3 3 1 0 7 9 9 16 22 20 23 27 27 33 39 42 45 45 46 46
29 30 32 33 33 32 30 23 11 14 21 7 1 9 12 12 12 14 12 6 7 9 13 14 17 25 27 20 17 23 25 21 25 31 27 25 25 18 13 17 13 9 11 12 11 11 10 7 11 11 8 9 10 9 8 7 5 7 9 11 13 13 10 7 3 6 5 6 4 4 1 5 6 14 14 12 13 14 16 20 24 32 35 36 37 39 43 45
27 28 30 32 33 34 31 21 16 23 20 5 5 12 11 10 10 10 6 2 5 5 3 4 8 10 11 16 20 18 9 13 29 36 28 24 27 19 10 11 9 9 12 9 5 6 7 8 10 10 10 11 10 10 10 8 5 8 7 8 11 11 11 11 4 2 3 5 5 2 3 5 4 11 15 13 14 17 16 16 23 30 33 35 36 39 42 43
26 26 28 30 31 34 33 27 24 25 19 11 13 14 11 9 8 7 2 2 5 4 4 3 5 3 5 17 27 19 3 5 16 30 35 27 25 23 11 6 7 8 8 5 4 4 7 11 10 11 11 10 10 10 10 9 7 9 4 4 7 8 10 13 6 3 5 5 7 3 4 3 4 8 14 15 17 17 15 16 19 26 32 37 38 40 43 45
25 25 26 27 28 31 33 30 27 23 18 17 19 16 10 8 7 3 1 2 3 3 3 3 3 2 5 17 31 20 2 6 7 18 39 31 22 21 12 9 9 8 10 9 7 5 9 13 13 14 12 9 9 9 9 11 10 9 4 4 7 8 9 10 5 5 5 4 8 6 5 4 5 5 8 14 16 16 17 19 18 23 33 38 39 41 44 47
25 25 26 27 26 27 30 29 26 23 20 20 19 14 9 6 4 2 2 2 3 1 1 3 2 3 9 15 25 18 3 3 1 10 31 30 23 18 8 11 11 7 11 12 9 5 6 15 19 15 12 9 8 8 10 13 12 8 5 6 7 6 7 6 5 5 3 4 9 10 6 5 7 4 5 9 13 16 17 18 18 25 36 39 41 43 44 46
26 24 27 28 27 27 29 28 25 21 20 20 17 11 8 3 1 3 3 4 3 3 1 3 2 3 9 9 10 13 7 4 4 8 22 23 25 17 6 10 10 5 6 9 11 8 3 12 18 12 11 11 9 9 11 14 13 5 4 6 7 6 4 3 2 3 2 6 10 13 9 7 6 6 5 8 12 16 16 15 17 23 32 38 41 44 45 46
28 25 27 29 29 29 29 26 21 18 19 18 15 10 5 2 2 3 6 3 3 3 2 4 5 6 2 3 3 6 6 5 2 8 12 11 15 12 3 6 7 3 4 6 9 9 5 7 7 7 13 15 9 9 10 12 12 7 4 5 4 5 4 4 2 3 5 9 8 11 9 8 8 7 5 8 14 20 18 17 18 20 27 38 43 45 46 48
30 27 26 28 28 24 22 22 17 14 15 13 11 7 1 0 1 4 4 4 3 2 3 3 4 7 4 3 2 5 4 4 2 6 9 9 9 10 8 7 7 6 6 8 6 5 8 9 4 5 13 16 10 7 8 8 10 9 5 5 4 3 3 5 4 2 7 9 5 8 8 6 9 8 8 11 15 19 19 20 24 25 30 39 44 47 48 47
31 28 26 27 25 16 15 20 16 10 8 7 5 2 3 2 4 5 5 4 1 3 5 4 7 8 5 3 3 6 5 3 3 3 8 11 9 11 12 9 9 8 5 7 6 3 4 7 7 7 8 12 12 8 7 6 7 9 8 6 6 5 4 6 5 4 6 6 4 6 6 4 5 6 11 13 14 20 24 29 34 35 38 45 49 51 48 46
33 30 28 26 19 9 11 21 17 8 5 3 3 1 3 4 4 3 5 6 3 5 6 7 9 8 4 3 4 4 3 5 6 3 4 9 8 9 10 9 9 7 3 4 4 6 6 6 8 11 6 10 13 11 9 6 6 9 7 6 7 6 5 5 4 4 5 6 5 3 4 5 5 6 11 14 16 23 31 37 40 39 43 48 48 48 45 44
36 30 27 26 16 6 12 23 20 8 5 5 3 2 5 6 3 1 2 3 4 5 8 9 7 4 2 3 4 3 4 3 6 5 4 7 8 8 9 10 11 7 4 4 3 4 9 8 6 9 8 11 12 11 9 7 5 7 5 6 8 7 6 4 5 5 3 4 5 3 4 6 5 6 7 12 15 20 26 33 34 34 38 38 36 36 40 43
37 29 26 26 14 7 17 26 20 7 6 4 3 5 5 3 1 1 1 3 3 6 10 8 3 2 3 3 3 7 9 5 1 2 4 6 7 9 9 7 10 12 7 6 4 2 6 8 4 4 6 10 13 10 10 10 6 3 5 8 7 7 8 6 6 4 2 4 5 3 4 5 3 6 6 9 13 14 17 21 23 28 32 30 29 33 39 44
35 32 31 20 9 13 24 25 17 6 7 3 4 5 3 1 1 0 1 3 4 6 7 4 3 2 2 3 3 7 9 6 4 4 1 3 4 7 9 7 9 14 12 8 5 3 5 6 4 8 9 13 15 11 8 11 10 5 5 8 3 3 6 5 3 5 5 6 5 2 5 5 3 5 5 6 10 11 13 14 17 22 24 24 30 37 41 46
33 36 29 11 11 25 27 20 13 7 7 2 4 5 1 1 4 4 2 4 4 4 3 1 2 1 2 3 3 6 9 5 4 7 3 2 2 1 2 5 7 11 17 16 7 3 6 6 6 10 12 10 10 9 6 8 12 8 5 7 6 4 7 4 4 6 6 6 6 3 5 5 5 5 4 7 10 11 12 12 15 17 16 20 29 36 40 45
31 31 20 10 20 29 24 18 10 9 7 2 5 4 2 2 6 9 10 7 2 2 2 2 2 2 2 3 4 5 6 3 4 5 2 2 2 5 10 6 3 6 12 18 11 4 5 5 6 6 10 8 5 6 7 8 10 6 2 5 5 4 6 6 4 4 4 5 5 3 3 5 6 6 7 9 11 12 12 12 14 15 17 23 30 34 39 44
29 21 13 18 28 25 20 12 6 10 4 2 3 3 3 3 6 10 13 10 2 1 2 2 2 3 3 5 6 5 3 4 4 2 1 4 2 5 12 11 6 11 12 10 11 8 4 4 6 4 5 7 4 5 10 10 9 7 5 6 6 3 3 4 4 3 4 5 4 3 6 7 5 5 9 10 11 12 12 12 13 15 21 28 33 36 40 45
25 10 12 24 28 25 22 6 7 4 2 2 2 4 6 6 6 10 15 13 6 3 3 4 4 5 4 5 6 4 3 3 4 1 3 3 3 3 10 14 9 11 11 6 4 6 3 4 6 6 5 6 5 7 12 13 12 10 8 8 8 5 4 4 5 2 3 5 5 5 8 9 5 5 8 10 10 10 11 13 12 15 24 32 36 40 42 46
16 6 17 27 26 26 23 6 1 4 0 2 6 6 7 8 7 8 11 11 7 4 5 4 4 5 4 3 3 4 4 2 3 2 2 1 4 4 11 21 17 12 8 3 3 6 5 2 8 9 8 7 9 10 12 14 13 10 9 8 7 5 5 6 8 4 3 3 2 2 6 9 6 7 8 9 9 10 12 13 12 16 27 32 35 41 44 46
12 17 26 27 25 25 17 3 3 6 2 8 12 9 8 6 6 7 6 7 7 4 3 2 2 2 2 2 3 4 4 2 1 2 2 3 5 8 15 25 21 13 9 4 4 11 10 3 5 6 6 5 6 7 5 7 10 9 9 9 8 8 8 7 6 4 4 4 3 2 6 7 4 6 8 7 7 9 11 13 13 15 22 28 33 38 41 43
18 24 24 22 24 19 9 3 5 5 6 10 11 9 8 5 6 8 6 6 5 3 3 3 3 5 3 2 2 2 4 3 1 5 5 2 3 10 20 26 20 10 7 6 6 7 5 2 1 2 5 6 5 6 6 5 6 5 6 10 12 14 13 7 3 3 4 6 7 5 7 6 5 4 6 5 4 6 7 13 17 18 22 28 32 34 35 39
16 16 11 18 23 13 6 6 6 5 7 9 9 9 9 7 7 9 8 7 5 4 3 4 6 7 3 2 2 1 3 2 1 5 5 4 4 7 17 23 16 8 9 12 13 8 3 2 1 3 6 8 6 6 7 5 4 3 5 10 14 17 18 11 4 4 6 5 7 7 5 5 7 6 4 5 6 7 7 10 16 20 23 27 30 31 32 36
10 6 5 15 19 10 7 10 10 7 7 8 7 6 8 8 8 10 8 5 7 10 6 5 6 6 3 4 4 3 2 2 2 4 4 5 3 3 13 19 13 11 16 19 19 11 2 2 4 5 5 6 5 7 6 6 7 9 10 12 13 15 17 13 8 7 6 4 6 8 6 4 6 6 5 6 7 9 9 9 11 17 22 24 29 33 36 38
4 3 2 7 10 8 8 9 11 9 8 8 6 5 8 9 7 7 5 3 10 11 5 3 5 6 5 6 3 3 3 3 3 4 4 4 3 5 11 12 9 14 20 18 17 10 1 2 5 5 6 6 6 12 12 8 12 15 14 14 13 13 14 15 14 10 8 7 9 8 8 8 8 6 7 8 8 9 9 8 9 15 21 23 27 33 35 38
3 4 7 7 4 3 5 7 10 10 9 9 5 5 8 9 6 6 4 5 10 9 3 3 6 8 8 6 2 2 5 5 2 1 2 4 5 6 8 5 5 16 19 13 11 7 1 3 4 6 11 12 10 13 14 12 12 13 15 17 16 14 15 18 16 11 11 11 12 9 11 11 9 8 9 9 9 10 10 11 12 15 20 23 26 29 32 36
5 7 9 7 3 4 9 12 14 10 8 8 5 4 8 8 7 9 7 7 8 7 4 3 4 8 9 6 2 1 3 4 3 2 4 5 6 6 6 3 3 13 16 10 8 6 2 4 5 8 13 14 13 13 13 12 12 11 13 17 17 16 18 19 16 13 13 15 12 9 12 12 10 11 11 13 16 15 10 10 13 16 19 22 24 26 30 35
7 7 8 7 4 8 12 11 9 7 6 7 5 3 6 7 8 10 8 7 7 6 5 5 8 10 7 5 5 3 3 3 5 5 5 5 5 3 3 2 3 8 10 6 6 6 3 4 8 9 9 11 12 11 10 10 11 13 12 13 16 18 20 20 17 13 11 13 11 9 9 9 8 8 9 13 17 13 7 7 12 14 15 16 19 23 29 33
9 10 11 9 5 6 7 6 5 4 4 4 4 5 5 6 7 7 7 8 8 7 6 7 11 10 6 6 6 7 8 6 7 9 9 7 7 5 4 3 4 6 6 4 4 3 2 3 6 7 6 7 8 8 13 16 11 11 14 15 16 17 17 16 14 11 11 12 12 11 8 7 9 8 7 8 10 8 6 7 11 13 13 13 15 20 25 30
10 11 11 7 4 4 4 3 3 4 3 3 5 7 7 8 9 6 5 7 8 10 13 12 10 7 6 8 8 9 12 14 14 17 17 16 14 13 12 11 9 6 4 3 3 3 1 2 5 5 4 6 9 10 13 14 9 9 15 18 17 14 13 12 11 11 13 13 12 12 10 10 9 7 6 8 9 8 10 13 15 17 19 18 18 20 23 27
Wind_Direction
342 341 338 333 330 327 324 321 317 314 312 309 307 307 305 306 306 306 307 307 307 306 305 305 307 307 305 300 296 295 293 291 288 281 274 274 282 272 256 238 226 214 209 203 190 185 179 177 180 182 180 179 191 200 200 206 207 199 200 219 239 250 225 217 216 198 147 141 154 157 148 139 151 153 140 148 144 142 149 151 163 174 170 167 169 165 164 164
342 341 338 335 331 328 326 323 320 318 315 313 310 307 304 303 302 302 304 304 305 304 304 305 307 308 305 301 300 300 298 296 293 283 277 284 269 247 226 214 217 211 204 201 196 188 184 180 178 179 180 185 200 201 200 208 207 202 200 215 229 233 221 217 212 212 131 139 161 162 153 149 155 153 147 145 141 143 135 131 146 134 139 156 162 163 164 165
341 340 337 334 331 328 326 323 322 319 318 316 312 309 307 303 302 300 300 301 302 303 302 304 307 308 304 302 303 305 306 305 298 288 282 293 258 239 215 202 204 205 202 204 204 199 194 183 176 177 179 196 210 204 206 203 201 207 214 246 245 239 255 264 252 270 138 147 155 162 156 149 152 154 153 149 148 154 145 145 148 140 146 155 160 164 165 166
341 339 336 334 331 329 326 323 321 318 317 315 313 310 307 304 303 300 299 299 299 299 299 301 305 306 303 302 306 308 314 313 302 293 284 318 286 245 215 198 196 198 201 207 209 205 204 187 179 178 180 209 221 217 222 208 194 197 208 227 245 239 259 270 268 285 232 156 157 156 154 146 154 158 154 147 142 171 179 170 169 163 159 158 163 166 167 168
343 340 337 334 331 329 325 323 320 318 316 312 311 307 305 304 301 300 299 297 296 296 295 297 301 304 301 300 305 306 321 329 301 127 46 3 14 263 207 196 193 194 199 203 203 198 202 193 182 181 189 219 222 226 235 220 212 208 224 230 245 259 268 278 283 300 140 155 159 154 156 155 157 163 159 153 153 192 192 184 178 171 166 165 167 168 169 172
343 340 337 334 331 328 325 323 320 318 315 312 309 305 304 300 300 300 297 296 293 292 291 292 297 300 298 299 301 301 306 275 245 242 323 34 37 5 190 191 189 189 196 195 195 195 194 189 183 186 199 220 213 219 233 220 215 235 253 241 251 258 260 278 285 293 262 157 178 173 164 160 158 173 171 166 180 194 190 184 179 175 171 168 167 168 171 175
341 339 337 334 331 329 326 323 320 317 315 312 309 305 302 298 298 297 295 295 290 290 288 288 294 294 296 295 294 295 263 257 275 291 274 229 47 15 178 183 185 186 194 193 192 193 192 186 187 193 196 217 219 224 235 223 212 229 262 261 265 266 260 268 275 280 275 203 200 182 164 163 166 177 179 183 198 191 183 179 177 173 169 166 167 171 174 177
339 337 335 333 330 328 326 324 320 318 315 311 308 304 301 298 295 294 293 292 288 288 285 284 290 289 291 290 291 295 268 271 296 277 230 207 146 184 180 179 185 192 193 195 192 193 197 192 195 197 195 219 215 221 231 226 222 230 253 270 275 272 266 268 271 271 271 238 203 180 168 178 179 173 179 197 197 176 173 172 172 167 166 168 170 173 176 179
338 336 334 332 329 327 325 323 321 319 315 311 308 303 300 297 294 293 289 287 286 285 282 282 285 283 284 284 285 289 275 277 309 254 215 206 192 185 189 187 191 200 201 202 197 196 200 200 205 200 202 235 233 246 224 204 229 225 239 260 269 271 272 274 275 269 262 233 198 176 179 188 181 169 175 193 173 165 168 167 167 166 167 171 172 175 177 180
337 335 334 332 329 327 324 323 321 319 317 312 308 304 301 299 295 292 286 283 282 281 281 279 279 279 278 274 257 257 270 263 295 291 220 212 214 196 199 199 197 203 207 210 207 206 207 212 214 207 227 265 248 255 233 214 244 240 245 254 258 262 268 270 271 269 260 216 195 182 183 189 177 167 173 179 165 162 163 162 166 167 170 174 175 177 179 183
338 336 334 332 329 327 324 322 321 319 316 311 308 306 306 304 299 292 283 277 277 280 279 277 276 273 270 261 229 232 264 259 260 269 193 201 218 211 207 202 203 206 206 212 213 215 217 223 219 210 231 256 252 269 257 244 253 261 261 262 261 259 260 259 259 261 258 203 196 187 157 172 177 184 180 166 164 165 162 162 167 169 173 177 177 179 182 185
339 337 336 334 332 329 326 323 320 318 314 309 308 309 312 309 300 288 279 274 275 278 277 276 272 267 267 256 243 240 256 259 233 198 174 178 203 218 217 210 211 213 212 216 218 220 223 224 219 207 211 228 248 278 274 270 271 271 267 264 270 272 262 254 246 245 245 202 193 176 111 164 190 206 174 164 165 166 163 164 169 171 174 178 179 182 184 186
340 338 338 336 334 331 329 326 322 319 313 309 309 314 317 308 297 286 278 275 273 275 276 275 270 266 261 251 252 251 248 250 244 230 214 214 219 215 219 220 221 223 226 231 233 234 230 224 219 215 218 227 256 265 287 305 306 291 269 239 272 312 288 254 239 236 235 203 183 168 142 206 207 202 168 165 166 163 163 166 171 174 175 179 182 184 186 188
341 340 339 337 336 334 332 329 325 321 315 312 316 321 317 304 297 291 283 277 272 274 274 268 266 262 248 251 261 265 258 251 246 236 228 235 234 216 217 222 226 230 233 240 248 246 238 231 223 222 228 232 253 279 297 309 303 295 277 253 255 274 277 266 249 227 237 201 179 173 216 213 217 190 168 167 167 164 165 169 173 176 177 179 183 185 188 190
342 341 340 338 337 336 335 332 328 323 317 317 324 325 317 307 305 300 289 280 273 272 269 261 256 249 252 264 270 274 266 253 243 233 230 234 228 218 214 213 222 230 234 240 243 239 238 232 219 219 230 233 245 276 302 302 293 295 258 276 270 218 267 285 272 201 218 202 177 179 222 213 218 181 171 170 170 167 167 171 176 178 179 181 183 186 189 192
343 341 340 339 337 336 337 335 332 325 318 323 329 328 321 315 315 309 297 287 279 268 258 251 245 237 258 279 277 267 256 248 243 234 228 227 222 218 211 209 222 231 235 236 231 231 237 226 212 213 220 227 230 237 284 294 294 304 215 245 252 220 267 294 301 222 209 193 178 187 188 188 204 177 175 173 172 171 169 173 177 180 183 183 183 187 189 192
344 342 341 340 338 336 337 337 335 326 321 328 333 330 325 325 328 323 337 20 347 291 249 226 220 234 252 264 271 256 250 255 256 246 230 220 216 216 210 211 221 228 232 234 233 236 233 212 203 213 214 208 172 171 240 259 253 290 254 246 245 219 248 270 305 301 211 173 186 197 184 188 177 170 178 177 175 174 172 176 179 181 185 185 185 187 189 192
344 343 342 341 339 338 338 339 336 328 325 333 341 334 317 330 343 298 153 20 359 337 254 198 162 209 259 252 254 251 257 263 241 234 229 217 212 212 208 207 212 220 227 235 239 235 225 208 194 201 207 198 183 179 212 234 217 217 220 247 276 242 249 246 265 313 212 177 190 192 194 207 174 168 178 181 179 178 179 179 180 182 185 186 187 188 191 193
343 342 342 341 339 337 338 340 337 332 328 332 346 336 304 327 326 229 260 321 319 283 258 208 177 199 272 257 252 253 258 250 231 224 217 211 205 204 203 204 208 213 208 209 235 218 205 200 193 206 213 202 204 202 215 235 227 220 211 225 260 257 256 247 248 281 237 205 199 193 197 190 173 176 181 183 183 183 184 181 180 184 186 187 188 191 193 195
342 341 340 339 337 336 337 341 338 336 335 338 350 353 356 356 339 267 315 308 292 274 271 253 228 240 259 261 260 266 270 264 260 237 220 222 202 193 197 200 204 209 190 169 215 202 187 198 218 213 214 205 209 215 213 228 244 248 247 250 258 255 261 256 246 255 222 206 220 209 204 191 179 183 183 181 182 186 186 182 183 186 187 189 190 193 196 199
341 339 339 338 336 334 335 339 336 337 347 352 356 26 42 18 4 321 321 308 294 281 271 266 254 250 257 259 258 267 281 283 264 227 210 221 201 186 191 193 189 202 195 185 194 181 182 214 230 208 198 195 202 210 202 218 238 247 249 260 271 254 258 265 245 235 212 186 250 229 213 215 192 185 181 177 181 189 188 184 187 189 189 191 193 195 198 201
339 338 337 336 335 333 334 339 336 339 357 352 1 46 37 14 355 324 318 297 292 289 275 271 263 254 258 259 257 261 270 277 260 230 207 199 197 186 182 186 186 190 187 184 187 184 202 227 225 194 179 184 207 211 196 220 234 244 244 248 269 256 267 281 258 235 204 183 246 217 200 229 209 189 181 179 187 193 191 189 188 188 189 192 196 197 199 201
337 336 335 334 334 332 333 339 337 345 356 347 9 38 12 357 343 328 316 279 287 288 271 263 256 250 252 253 250 246 239 240 247 235 213 190 193 189 178 179 190 181 173 188 194 193 214 229 206 178 171 185 223 228 199 230 241 238 240 233 256 255 257 276 280 310 280 237 249 202 185 206 192 195 195 192 196 195 194 195 192 190 190 193 197 198 199 198
336 335 333 332 331 329 332 340 340 344 348 344 350 9 356 344 338 336 326 283 279 283 269 263 253 247 247 247 241 222 217 223 227 226 213 189 184 186 184 180 176 182 191 196 201 207 224 218 176 173 181 187 216 233 208 228 248 245 240 229 250 255 238 232 292 354 335 304 276 163 141 222 160 181 210 205 204 203 197 195 198 200 198 198 199 199 199 197
335 334 331 329 329 327 330 339 337 338 347 354 266 337 340 332 335 342 334 292 276 278 274 265 244 244 243 235 225 209 210 222 222 221 214 198 188 177 182 183 175 196 200 190 199 218 232 206 168 176 195 193 209 230 214 206 236 259 246 229 243 260 259 252 320 9 340 305 283 141 135 288 191 184 201 202 204 208 199 195 202 205 205 205 205 202 201 200
334 333 330 327 327 325 328 337 335 337 348 350 302 322 322 322 330 337 337 308 295 262 244 235 218 235 224 200 194 185 190 235 229 222 216 208 199 184 174 179 180 201 190 178 204 223 217 188 168 181 197 198 209 227 216 194 216 253 238 215 240 260 268 268 285 359 277 265 273 151 151 268 242 196 201 195 198 205 199 200 207 205 205 207 208 205 203 202
335 332 329 325 325 328 330 333 329 334 343 327 317 323 320 316 317 324 348 349 298 211 158 188 200 195 183 180 172 159 138 231 219 219 213 207 199 193 191 175 177 193 167 152 223 211 171 178 184 188 191 200 211 221 209 183 209 245 205 168 237 252 259 265 259 212 239 262 279 257 156 224 258 213 204 193 198 207 202 205 209 207 207 209 210 208 205 203
336 333 328 322 323 328 327 324 323 330 333 322 322 325 323 312 304 315 84 316 287 173 147 191 193 166 169 170 171 171 184 145 152 218 210 202 190 188 200 195 179 179 167 171 213 200 160 180 191 191 197 210 210 211 194 183 216 241 189 182 237 241 247 260 251 225 240 261 272 254 170 205 267 243 208 193 197 206 207 211 210 207 210 210 211 211 208 206
336 334 330 322 319 323 321 320 325 326 320 317 319 321 325 313 306 57 131 262 282 291 126 165 167 151 148 161 183 200 247 145 108 206 195 195 192 187 204 204 181 169 183 193 211 200 166 190 192 189 204 215 203 203 191 193 220 228 197 224 250 248 247 245 221 221 222 215 248 249 187 194 264 257 187 188 201 207 208 212 211 210 211 210 211 212 210 208
335 335 330 324 323 323 321 323 329 322 311 311 315 322 336 325 75 97 202 239 288 278 117 113 57 107 139 146 203 232 251 294 344 152 172 185 191 193 210 194 177 159 193 211 217 215 214 198 193 191 208 207 193 201 201 205 217 202 181 230 260 269 272 274 203 165 218 237 239 241 208 178 247 257 185 185 199 203 207 210 212 214 213 212 212 213 211 209
335 333 330 326 327 329 326 328 332 322 307 307 315 323 335 352 87 156 215 257 302 263 66 61 29 34 116 169 236 242 250 290 346 140 162 173 182 193 196 169 169 154 198 231 225 221 240 219 198 196 204 199 190 203 211 210 212 204 173 187 236 280 296 296 285 130 227 245 230 231 218 183 225 252 216 202 196 197 204 206 208 212 213 213 213 214 212 210
334 331 327 324 328 335 336 336 332 314 301 302 310 316 347 66 236 210 240 329 336 302 20 24 3 356 307 279 267 218 225 264 229 161 171 171 177 193 193 181 172 168 205 222 211 204 223 227 232 224 205 195 186 200 216 212 205 205 188 160 180 244 257 241 239 209 236 249 227 210 208 202 230 239 216 210 199 197 202 206 208 208 209 211 213 214 213 210
334 331 325 322 331 340 344 345 336 304 293 287 280 315 90 175 230 213 236 283 344 46 25 354 327 312 276 294 281 207 191 229 228 200 188 181 182 197 202 201 183 178 194 198 182 173 228 239 226 231 222 195 186 185 204 211 200 200 192 172 183 203 218 223 235 253 248 258 249 195 187 221 258 242 213 206 204 201 201 207 211 210 209 210 211 212 211 209
336 334 323 322 336 339 340 350 343 304 267 225 201 114 134 209 242 212 220 256 317 33 25 345 320 300 252 242 249 189 182 230 207 179 189 184 188 202 204 205 196 187 128 140 181 185 211 247 214 210 202 180 194 201 192 174 181 206 189 166 195 199 195 207 210 227 247 264 267 197 177 202 217 228 209 198 204 205 203 208 212 213 214 213 211 210 208 208
338 334 322 324 336 335 345 350 343 310 230 195 161 171 198 211 247 248 230 291 330 359 349 328 310 310 319 271 269 24 24 273 206 186 191 185 195 201 199 201 196 185 144 169 214 183 208 242 231 213 193 172 198 209 178 150 183 212 163 161 209 194 174 215 213 195 213 266 258 209 207 215 217 248 220 195 203 206 207 211 211 215 219 216 212 209 207 208
340 336 327 332 340 342 347 345 337 306 218 196 160 209 228 221 202 198 356 359 337 330 332 327 338 16 343 306 322 14 13 351 317 223 205 189 205 203 199 205 193 192 186 187 210 150 196 239 223 184 205 199 201 195 173 173 185 180 163 192 206 171 177 224 240 222 215 262 257 207 237 270 279 276 249 202 202 205 209 212 210 215 218 211 208 208 207 208
344 338 333 345 15 349 340 336 327 277 216 207 196 222 252 265 260 168 26 15 343 328 340 350 354 357 343 329 336 6 0 347 8 2 269 204 222 207 205 214 196 199 198 193 224 188 177 257 235 174 214 228 208 196 195 189 175 154 191 197 154 147 206 205 220 240 234 250 267 219 231 251 227 254 262 205 205 212 213 212 213 216 212 204 206 208 208 208
342 336 332 2 15 339 332 328 313 238 199 224 237 249 272 252 314 331 329 3 351 322 350 346 268 293 23 352 318 354 358 345 11 7 322 247 302 332 244 231 207 207 202 195 221 220 180 253 263 193 205 222 200 196 234 222 205 205 197 174 145 181 215 184 185 224 218 238 271 274 248 234 204 222 229 202 209 215 214 214 218 218 205 201 208 209 208 210
340 334 327 352 351 335 327 320 292 198 177 221 231 248 278 253 293 298 301 326 323 261 301 235 238 329 0 337 311 335 350 322 336 356 328 292 310 35 20 353 290 281 233 205 205 204 179 218 254 212 195 196 180 183 211 230 229 228 170 170 178 177 192 191 185 193 196 227 258 272 257 235 219 205 189 197 210 210 211 213 217 219 208 203 207 208 208 210
343 333 309 339 349 339 330 319 219 177 181 241 211 249 298 291 288 291 299 309 283 205 307 270 308 331 312 319 313 309 319 293 301 309 272 324 352 65 27 6 332 325 307 249 216 203 185 203 237 253 202 192 190 188 200 209 215 215 199 197 205 188 181 207 201 168 171 194 207 230 252 251 242 202 182 192 206 208 209 210 216 220 212 207 209 209 208 210
346 326 297 340 354 347 345 357 166 175 249 231 244 269 285 291 285 286 289 294 295 258 246 257 277 273 276 308 304 298 320 299 301 278 218 309 1 55 14 1 336 320 330 329 257 227 216 197 215 238 225 204 211 202 201 206 204 203 206 203 202 186 136 182 223 213 165 190 187 201 248 260 247 202 191 194 202 209 207 204 214 220 214 212 211 211 211 211
345 293 307 342 358 355 357 17 178 350 244 290 326 309 309 306 295 296 294 310 332 283 246 247 252 259 274 305 325 348 355 314 291 289 219 1 57 74 5 359 351 334 344 0 303 319 331 229 211 231 229 213 219 212 204 210 207 201 206 203 194 180 150 183 220 217 197 225 176 162 251 263 240 195 194 197 199 209 211 202 206 220 219 217 215 214 214 214
324 297 315 346 4 359 0 13 357 13 355 338 342 331 330 327 324 342 348 358 360 331 315 316 288 350 17 20 5 354 344 323 241 15 12 16 56 62 17 2 357 355 4 359 329 350 350 287 220 250 258 253 254 250 239 215 202 203 213 200 191 197 193 199 205 180 200 218 152 182 257 264 255 203 199 215 210 206 212 206 205 220 225 224 222 219 217 215
313 305 317 353 6 3 9 11 9 11 336 342 346 332 337 348 342 350 353 342 332 316 329 324 336 0 0 354 10 359 344 343 77 39 25 343 3 34 20 4 357 2 9 355 343 346 340 306 312 269 245 250 263 266 265 229 200 211 217 205 206 206 200 200 164 149 221 208 164 189 242 249 278 250 202 219 222 203 213 210 209 216 222 225 227 226 222 219
322 312 316 350 357 11 42 15 9 2 339 344 339 331 346 349 341 346 335 317 325 346 334 310 323 324 308 3 18 356 358 5 30 11 2 334 336 19 15 358 348 350 346 346 350 335 261 245 269 195 216 231 228 231 226 200 199 237 219 211 214 207 201 200 177 187 229 218 172 189 223 249 291 295 235 227 222 217 228 223 218 221 225 226 226 227 225 223
326 313 304 342 350 6 22 10 14 4 345 348 337 329 343 333 325 342 340 331 2 5 340 296 317 318 331 35 12 325 3 36 7 336 320 337 337 1 2 346 330 342 349 351 354 341 247 230 261 225 229 241 256 278 251 182 187 216 218 219 220 214 207 200 198 204 197 196 212 201 182 218 270 284 275 270 252 236 237 232 224 224 226 226 225 225 224 223
313 294 304 342 342 343 350 5 15 0 339 342 332 302 323 321 313 338 0 5 0 359 333 304 5 13 5 12 358 312 343 346 314 296 299 344 320 311 345 335 323 355 358 354 355 352 332 316 292 261 268 269 280 292 280 236 210 210 210 218 222 219 211 207 216 206 156 174 230 211 172 204 243 252 256 261 256 252 249 241 228 224 226 229 228 226 223 222
279 285 312 326 326 336 342 339 344 341 329 332 318 283 313 320 319 341 2 353 349 0 4 343 14 16 352 354 17 321 336 336 304 294 345 344 319 324 343 329 342 8 4 352 355 4 287 266 291 306 309 305 298 291 282 263 239 218 206 211 217 216 212 216 220 198 166 198 230 210 185 202 223 228 235 243 242 242 244 238 230 229 235 239 234 227 223 222
279 284 303 321 319 300 300 302 313 322 323 323 310 297 319 325 337 345 348 347 340 346 359 333 337 351 342 339 3 341 339 334 302 323 344 326 324 336 336 310 1 13 5 345 342 358 311 272 310 320 314 309 305 296 283 264 250 239 220 209 209 212 215 219 218 200 196 216 225 204 196 207 216 213 215 229 237 241 247 245 234 228 233 237 232 226 225 226
281 281 297 314 302 285 285 288 303 316 315 311 299 306 323 323 338 344 337 327 309 311 347 341 320 326 321 317 329 294 273 279 275 295 316 315 329 339 315 307 359 0 356 335 327 358 8 301 313 322 315 304 304 309 312 291 254 244 241 222 210 211 214 220 217 201 202 223 230 217 207 221 241 228 217 230 239 246 257 253 240 230 221 219 223 228 230 229
284 288 295 298 288 282 281 280 295 300 299 302 303 323 331 318 326 333 312 289 273 281 327 329 313 312 306 311 310 281 286 292 277 287 295 286 287 284 276 299 327 334 341 319 300 331 357 300 307 326 320 295 304 332 332 321 296 250 241 233 219 210 212 219 214 197 192 205 221 227 220 235 246 233 233 253 255 252 245 236 240 242 233 222 229 238 235 229
290 293 295 292 285 291 288 275 276 276 284 310 318 321 319 309 315 326 310 296 297 310 320 316 308 312 312 304 290 284 304 311 298 294 292 281 271 264 260 266 274 273 269 282 285 268 248 282 302 321 314 286 299 318 320 319 309 254 233 225 221 215 212 214 216 213 200 189 203 221 219 226 230 204 200 244 253 245 241 237 234 241 246 241 236 239 237 231
Height
1520 1519 1517 1516 1515 1514 1513 1511 1510 1509 1508 1507 1506 1505 1504 1503 1502 1501 1499 1498 1498 1497 1496 1495 1495 1494 1493 1492 1491 1490 1489 1488 1487 1487 1483 1479 1480 1482 1483 1484 1485 1487 1488 1489 1490 1491 1492 1495 1497 1499 1502 1503 1504 1504 1505 1506 1507 1510 1512 1517 1517 1510 1504 1494 1489 1487 1485 1488 1487 1486 1486 1489 1495 1498 1499 1502 1503 1501 1504 1507 1507 1509 1509 1510 1512 1514 1516 1519
1519 1518 1516 1515 1514 1512 1511 1510 1509 1508 1507 1506 1505 1503 1502 1501 1500 1499 1498 1497 1496 1495 1494 1494 1494 1493 1492 1491 1489 1488 1487 1486 1484 1482 1478 1476 1478 1478 1479 1481 1483 1484 1486 1487 1488 1488 1489 1491 1495 1498 1500 1501 1502 1503 1505 1504 1505 1507 1508 1513 1509 1499 1492 1484 1482 1480 1480 1485 1485 1486 1485 1485 1490 1493 1496 1500 1504 1503 1504 1507 1508 1509 1510 1512 1514 1515 1518 1519
1518 1517 1515 1514 1512 1511 1510 1508 1507 1506 1505 1504 1503 1502 1501 1500 1499 1498 1497 1495 1494 1493 1492 1492 1492 1491 1490 1489 1488 1487 1485 1484 1480 1477 1475 1475 1475 1474 1476 1478 1479 1482 1484 1486 1488 1489 1490 1491 1495 1497 1500 1501 1501 1502 1503 1502 1502 1502 1505 1509 1500 1488 1484 1479 1479 1479 1479 1481 1482 1486 1486 1485 1489 1490 1493 1497 1502 1503 1502 1503 1506 1508 1508 1510 1513 1515 1518 1519
1517 1516 1514 1512 1511 1510 1508 1507 1506 1504 1503 1502 1501 1500 1499 1497 1497 1496 1495 1494 1492 1491 1490 1490 1491 1490 1489 1487 1487 1486 1484 1483 1477 1473 1474 1473 1473 1472 1473 1474 1476 1479 1482 1485 1488 1490 1492 1494 1496 1497 1500 1500 1500 1501 1501 1499 1499 1498 1500 1500 1489 1483 1484 1478 1478 1481 1482 1481 1481 1485 1486 1488 1490 1491 1492 1494 1502 1506 1501 1497 1497 1500 1503 1506 1511 1514 1516 1519
1516 1514 1513 1511 1509 1508 1507 1505 1504 1503 1502 1500 1499 1498 1497 1496 1495 1494 1493 1492 1491 1490 1488 1488 1489 1489 1487 1486 1486 1485 1486 1484 1475 1472 1474 1472 1471 1470 1470 1472 1475 1478 1481 1484 1486 1489 1492 1493 1495 1497 1499 1499 1499 1500 1497 1494 1496 1495 1490 1487 1482 1483 1485 1477 1476 1482 1483 1484 1484 1484 1485 1488 1489 1490 1490 1490 1496 1498 1493 1493 1493 1495 1498 1500 1505 1510 1514 1517
1515 1513 1512 1510 1508 1507 1505 1504 1502 1501 1499 1498 1497 1496 1495 1494 1492 1492 1491 1490 1489 1488 1487 1486 1487 1487 1486 1485 1485 1484 1486 1483 1473 1472 1473 1472 1471 1469 1469 1471 1474 1478 1481 1483 1485 1487 1490 1492 1494 1495 1496 1496 1497 1496 1492 1491 1494 1494 1487 1481 1482 1484 1484 1478 1476 1480 1483 1486 1485 1484 1483 1484 1487 1489 1488 1485 1485 1484 1485 1490 1493 1495 1497 1499 1503 1507 1510 1513
1514 1512 1510 1508 1507 1505 1504 1502 1500 1499 1497 1496 1495 1493 1492 1491 1490 1490 1488 1488 1487 1486 1485 1484 1485 1485 1484 1484 1483 1482 1483 1477 1471 1472 1473 1472 1472 1470 1471 1473 1476 1478 1480 1482 1483 1486 1488 1490 1491 1491 1493 1494 1494 1490 1489 1490 1491 1493 1487 1480 1481 1483 1481 1478 1476 1477 1480 1484 1483 1483 1483 1483 1484 1486 1488 1485 1482 1482 1486 1490 1494 1497 1499 1501 1504 1506 1508 1510
1513 1511 1509 1507 1505 1503 1502 1500 1499 1497 1496 1494 1492 1491 1490 1489 1488 1487 1486 1486 1484 1484 1483 1482 1483 1483 1483 1483 1481 1481 1478 1472 1469 1471 1470 1471 1472 1472 1473 1474 1476 1478 1479 1481 1482 1484 1486 1488 1489 1489 1492 1491 1489 1487 1487 1490 1491 1490 1487 1481 1480 1480 1477 1475 1476 1475 1478 1480 1481 1483 1482 1480 1480 1481 1484 1484 1484 1484 1487 1491 1494 1498 1501 1502 1503 1506 1509 1511
1512 1510 1508 1506 1504 1502 1500 1498 1497 1495 1494 1492 1490 1489 1487 1486 1485 1484 1484 1483 1482 1482 1480 1481 1481 1480 1481 1481 1481 1479 1472 1468 1469 1469 1469 1470 1471 1472 1474 1474 1476 1477 1478 1480 1481 1484 1485 1486 1486 1488 1489 1488 1487 1486 1487 1492 1492 1486 1484 1482 1480 1478 1475 1474 1474 1473 1475 1477 1478 1481 1481 1480 1480 1481 1484 1484 1485 1486 1488 1491 1494 1497 1500 1502 1503 1505 1507 1510
1511 1509 1507 1505 1503 1501 1498 1496 1495 1493 1491 1489 1488 1486 1485 1484 1483 1482 1481 1480 1480 1479 1478 1479 1478 1479 1479 1478 1480 1477 1468 1466 1468 1468 1468 1469 1470 1472 1473 1474 1475 1476 1477 1479 1480 1482 1483 1484 1485 1488 1489 1487 1487 1486 1486 1489 1488 1483 1482 1481 1479 1478 1475 1473 1472 1469 1472 1474 1476 1479 1480 1480 1480 1483 1487 1485 1484 1487 1489 1492 1493 1496 1499 1502 1504 1505 1507 1509
1509 1507 1506 1503 1501 1499 1497 1495 1493 1491 1489 1486 1485 1484 1483 1482 1480 1479 1477 1477 1477 1477 1476 1476 1476 1477 1476 1476 1477 1471 1465 1466 1467 1467 1468 1468 1469 1471 1472 1473 1474 1475 1476 1477 1479 1480 1482 1483 1485 1490 1490 1487 1486 1485 1484 1484 1484 1482 1482 1481 1478 1477 1474 1472 1471 1468 1469 1472 1472 1474 1479 1481 1482 1482 1482 1481 1483 1486 1488 1492 1493 1495 1498 1501 1503 1505 1507 1509
1508 1506 1504 1502 1500 1497 1495 1493 1490 1489 1486 1484 1482 1481 1480 1479 1477 1475 1474 1474 1474 1474 1474 1474 1474 1474 1474 1474 1468 1463 1463 1465 1465 1466 1466 1467 1469 1470 1471 1472 1473 1474 1475 1476 1478 1479 1481 1483 1485 1488 1487 1485 1486 1486 1483 1481 1483 1481 1481 1484 1480 1476 1475 1470 1468 1467 1468 1470 1469 1473 1485 1488 1483 1480 1478 1478 1482 1484 1486 1490 1493 1494 1497 1500 1503 1504 1506 1508
1506 1504 1502 1500 1498 1495 1493 1490 1488 1486 1484 1482 1480 1479 1478 1475 1473 1472 1471 1471 1471 1471 1471 1472 1472 1471 1473 1467 1457 1458 1463 1464 1464 1464 1464 1466 1467 1468 1470 1471 1472 1474 1475 1476 1477 1479 1480 1482 1483 1484 1484 1484 1484 1484 1481 1478 1481 1481 1480 1483 1482 1482 1478 1467 1465 1466 1465 1467 1465 1473 1492 1494 1482 1477 1477 1478 1480 1484 1487 1489 1491 1494 1496 1499 1502 1503 1504 1507
1505 1503 1500 1498 1496 1494 1491 1489 1486 1484 1481 1479 1478 1477 1475 1472 1471 1470 1469 1469 1468 1468 1468 1469 1469 1470 1469 1459 1451 1456 1460 1461 1461 1461 1462 1465 1466 1467 1468 1470 1471 1472 1474 1475 1476 1478 1479 1481 1482 1483 1483 1483 1482 1482 1482 1480 1481 1482 1482 1482 1484 1489 1482 1465 1463 1466 1466 1466 1462 1471 1490 1490 1480 1477 1476 1477 1479 1480 1484 1487 1490 1492 1494 1496 1499 1501 1503 1504
1503 1501 1499 1497 1494 1492 1490 1487 1484 1482 1479 1477 1476 1474 1471 1470 1468 1467 1467 1466 1466 1466 1465 1467 1466 1468 1465 1454 1450 1454 1454 1455 1456 1457 1461 1463 1464 1466 1466 1468 1469 1470 1473 1474 1475 1477 1478 1480 1481 1481 1481 1481 1483 1485 1487 1486 1482 1482 1487 1489 1486 1488 1482 1467 1461 1464 1467 1465 1461 1471 1486 1485 1478 1476 1475 1476 1478 1479 1482 1485 1488 1491 1492 1494 1496 1499 1501 1502
1502 1500 1498 1495 1493 1490 1488 1486 1483 1480 1477 1475 1474 1472 1469 1468 1467 1466 1465 1464 1464 1464 1463 1465 1464 1466 1464 1453 1450 1451 1450 1451 1452 1455 1458 1459 1461 1463 1465 1467 1467 1469 1471 1472 1474 1476 1478 1479 1479 1479 1479 1480 1483 1487 1491 1492 1488 1484 1488 1492 1488 1486 1485 1474 1463 1458 1460 1464 1463 1468 1479 1481 1476 1474 1475 1476 1477 1479 1480 1483 1486 1489 1491 1492 1494 1496 1499 1502
1501 1499 1497 1495 1492 1489 1487 1484 1481 1478 1476 1474 1472 1470 1468 1467 1466 1465 1464 1464 1463 1462 1463 1463 1463 1465 1459 1449 1448 1448 1448 1449 1451 1452 1453 1455 1458 1459 1464 1466 1466 1468 1469 1471 1473 1474 1477 1477 1478 1478 1477 1478 1480 1487 1496 1500 1495 1489 1488 1488 1486 1484 1484 1480 1469 1458 1456 1462 1467 1467 1471 1474 1471 1470 1474 1475 1476 1479 1480 1481 1483 1486 1489 1491 1492 1495 1497 1499
1500 1498 1496 1494 1491 1488 1486 1483 1480 1477 1475 1473 1471 1469 1467 1466 1465 1464 1463 1462 1463 1463 1463 1462 1464 1465 1454 1444 1446 1446 1446 1449 1449 1450 1451 1452 1455 1457 1461 1463 1464 1466 1467 1470 1471 1472 1475 1474 1475 1477 1476 1477 1479 1484 1494 1495 1490 1489 1489 1487 1486 1483 1482 1481 1474 1463 1459 1463 1467 1469 1472 1473 1470 1469 1472 1473 1475 1477 1476 1478 1480 1483 1487 1490 1491 1493 1494 1496
1500 1497 1495 1492 1490 1487 1485 1482 1479 1476 1474 1472 1471 1468 1466 1465 1464 1463 1462 1462 1462 1462 1461 1458 1459 1459 1448 1441 1443 1445 1445 1447 1447 1448 1448 1449 1452 1454 1458 1461 1463 1464 1467 1470 1470 1469 1471 1473 1474 1476 1475 1476 1476 1478 1483 1483 1481 1483 1484 1484 1485 1484 1480 1476 1471 1464 1462 1467 1469 1470 1472 1471 1471 1471 1470 1471 1473 1475 1476 1477 1480 1483 1485 1487 1489 1490 1491 1493
1498 1496 1494 1491 1488 1486 1483 1481 1478 1476 1473 1472 1470 1468 1466 1466 1464 1463 1461 1459 1459 1457 1455 1454 1452 1449 1442 1439 1442 1444 1444 1445 1445 1446 1447 1448 1449 1452 1455 1459 1461 1463 1464 1468 1469 1465 1468 1474 1473 1471 1472 1472 1473 1474 1476 1477 1477 1478 1481 1482 1481 1483 1479 1470 1468 1464 1460 1469 1471 1467 1468 1468 1468 1467 1466 1468 1473 1475 1477 1478 1480 1481 1483 1485 1486 1487 1488 1488
1497 1495 1492 1489 1487 1484 1482 1480 1478 1476 1474 1472 1471 1469 1470 1472 1471 1469 1462 1453 1451 1453 1450 1447 1448 1443 1438 1438 1440 1443 1444 1443 1442 1442 1445 1446 1447 1450 1453 1455 1459 1462 1462 1463 1466 1464 1466 1471 1468 1467 1468 1469 1470 1471 1473 1475 1476 1477 1480 1482 1480 1479 1475 1466 1466 1464 1459 1468 1471 1465 1469 1470 1465 1463 1464 1467 1471 1471 1472 1474 1476 1477 1479 1481 1482 1483 1484 1485
1496 1493 1491 1488 1485 1482 1481 1479 1477 1475 1474 1474 1472 1471 1473 1475 1475 1474 1469 1455 1443 1446 1445 1441 1441 1437 1432 1434 1436 1442 1446 1443 1439 1438 1441 1444 1445 1447 1449 1452 1457 1459 1460 1462 1465 1467 1468 1465 1462 1464 1465 1466 1469 1469 1472 1474 1475 1477 1477 1481 1481 1474 1470 1465 1461 1460 1458 1466 1469 1464 1469 1471 1465 1463 1463 1463 1464 1464 1466 1467 1468 1472 1475 1478 1479 1480 1481 1484
1496 1492 1490 1487 1483 1481 1479 1478 1476 1474 1474 1473 1472 1473 1473 1474 1474 1472 1471 1460 1441 1435 1437 1433 1432 1428 1425 1428 1431 1439 1442 1439 1437 1435 1437 1441 1441 1443 1445 1449 1454 1457 1459 1461 1463 1468 1468 1461 1457 1461 1462 1465 1469 1469 1471 1474 1474 1476 1476 1480 1478 1469 1472 1472 1463 1459 1457 1460 1463 1463 1466 1467 1467 1470 1468 1463 1461 1462 1464 1466 1468 1469 1470 1470 1472 1474 1476 1480
1495 1492 1489 1485 1482 1480 1478 1477 1475 1474 1474 1472 1472 1472 1472 1473 1472 1469 1467 1460 1442 1429 1426 1424 1424 1420 1418 1422 1427 1432 1433 1432 1433 1431 1432 1436 1437 1440 1442 1444 1451 1456 1456 1456 1458 1461 1461 1455 1452 1458 1461 1464 1469 1469 1471 1475 1476 1474 1472 1475 1472 1466 1470 1472 1466 1462 1459 1458 1457 1462 1472 1472 1469 1474 1473 1466 1465 1466 1466 1469 1471 1470 1469 1469 1469 1471 1473 1474
1494 1492 1488 1484 1481 1477 1476 1477 1474 1474 1473 1471 1472 1471 1472 1472 1470 1469 1465 1460 1446 1428 1420 1419 1418 1415 1412 1419 1424 1425 1427 1426 1424 1425 1428 1431 1433 1436 1438 1440 1447 1453 1453 1454 1457 1458 1455 1452 1451 1457 1460 1462 1467 1468 1469 1473 1477 1475 1468 1466 1466 1464 1466 1468 1468 1469 1471 1471 1460 1461 1483 1483 1469 1470 1470 1466 1468 1468 1467 1467 1467 1467 1469 1471 1471 1471 1472 1472
1493 1491 1487 1483 1480 1475 1475 1475 1473 1474 1472 1472 1472 1470 1472 1470 1469 1469 1466 1465 1451 1426 1417 1417 1415 1411 1410 1416 1419 1422 1430 1422 1414 1420 1425 1428 1430 1432 1436 1438 1440 1445 1448 1451 1455 1452 1449 1449 1450 1455 1459 1461 1465 1466 1464 1467 1477 1476 1462 1458 1462 1464 1466 1467 1469 1474 1480 1478 1462 1459 1480 1485 1473 1469 1465 1464 1467 1466 1464 1464 1463 1464 1467 1468 1469 1469 1469 1470
1493 1490 1487 1483 1480 1476 1474 1473 1474 1473 1472 1472 1470 1470 1471 1468 1469 1468 1465 1470 1450 1418 1413 1416 1413 1411 1409 1412 1414 1421 1427 1416 1410 1417 1419 1423 1428 1429 1436 1438 1437 1441 1441 1449 1456 1447 1442 1449 1451 1452 1457 1460 1462 1462 1459 1463 1473 1469 1455 1457 1462 1463 1466 1466 1469 1476 1475 1471 1464 1460 1469 1480 1478 1469 1460 1460 1465 1465 1464 1463 1460 1461 1463 1463 1464 1465 1465 1465
1492 1489 1486 1483 1481 1479 1475 1474 1474 1472 1472 1471 1468 1470 1468 1466 1469 1465 1469 1474 1441 1407 1409 1412 1410 1410 1409 1412 1413 1413 1414 1409 1411 1413 1412 1421 1426 1426 1433 1433 1434 1437 1435 1444 1454 1441 1436 1446 1448 1450 1455 1457 1456 1455 1454 1459 1464 1458 1453 1457 1459 1460 1464 1463 1468 1474 1470 1473 1475 1464 1464 1479 1478 1463 1456 1459 1464 1467 1464 1460 1458 1457 1457 1458 1460 1461 1461 1461
1491 1488 1485 1482 1480 1479 1476 1474 1474 1471 1471 1469 1468 1468 1465 1467 1467 1463 1474 1471 1428 1403 1408 1408 1409 1411 1410 1414 1414 1410 1409 1408 1410 1409 1410 1420 1423 1424 1429 1428 1430 1436 1433 1437 1443 1439 1435 1438 1439 1444 1450 1450 1449 1449 1450 1454 1455 1451 1453 1457 1456 1458 1461 1462 1468 1471 1471 1480 1480 1465 1462 1477 1476 1458 1456 1463 1464 1463 1459 1454 1451 1449 1450 1452 1454 1456 1457 1458
1489 1486 1484 1480 1478 1476 1474 1472 1472 1470 1468 1467 1467 1466 1465 1466 1465 1469 1482 1462 1421 1408 1408 1407 1412 1413 1412 1417 1416 1413 1411 1409 1408 1407 1411 1416 1420 1423 1425 1427 1430 1434 1436 1435 1437 1436 1432 1432 1434 1437 1441 1441 1443 1445 1445 1447 1448 1450 1455 1459 1461 1461 1460 1463 1465 1467 1477 1482 1472 1460 1457 1469 1474 1457 1450 1455 1454 1451 1451 1449 1448 1446 1447 1449 1449 1451 1453 1454
1487 1485 1483 1480 1477 1475 1472 1471 1470 1468 1467 1465 1466 1465 1465 1465 1466 1475 1472 1441 1418 1413 1409 1412 1417 1415 1417 1419 1418 1416 1413 1412 1408 1409 1414 1416 1421 1425 1425 1429 1432 1436 1442 1440 1437 1436 1434 1435 1434 1432 1432 1434 1439 1444 1443 1443 1445 1451 1457 1461 1468 1470 1466 1469 1468 1470 1484 1480 1462 1454 1453 1463 1471 1455 1441 1441 1437 1437 1441 1443 1443 1442 1442 1443 1444 1445 1447 1449
1485 1483 1481 1479 1477 1475 1473 1470 1468 1467 1466 1465 1466 1465 1465 1469 1470 1468 1450 1427 1422 1421 1416 1422 1422 1418 1420 1418 1417 1416 1414 1414 1409 1408 1412 1414 1419 1422 1421 1425 1428 1439 1448 1442 1439 1440 1437 1435 1432 1430 1429 1429 1438 1446 1446 1444 1445 1451 1458 1463 1476 1482 1480 1482 1480 1478 1480 1469 1453 1450 1453 1460 1458 1442 1433 1432 1429 1428 1431 1432 1432 1432 1433 1435 1436 1439 1441 1445
1484 1481 1478 1477 1476 1475 1473 1470 1467 1466 1464 1464 1466 1464 1466 1472 1466 1452 1439 1430 1427 1425 1424 1426 1423 1420 1420 1418 1416 1412 1412 1414 1410 1409 1410 1410 1417 1418 1417 1418 1419 1430 1439 1437 1441 1445 1442 1436 1431 1432 1430 1425 1432 1442 1447 1447 1445 1450 1455 1462 1475 1484 1491 1495 1489 1481 1474 1462 1450 1447 1452 1458 1450 1432 1423 1424 1422 1420 1420 1422 1423 1424 1425 1426 1427 1430 1435 1440
1482 1479 1476 1474 1474 1473 1471 1469 1467 1465 1464 1464 1464 1465 1469 1471 1457 1442 1438 1433 1426 1426 1428 1428 1424 1420 1417 1416 1413 1408 1411 1412 1407 1409 1411 1412 1418 1419 1418 1419 1417 1422 1428 1434 1440 1443 1449 1445 1431 1428 1427 1422 1425 1430 1434 1439 1442 1445 1445 1453 1464 1469 1478 1486 1482 1477 1473 1461 1453 1453 1455 1453 1443 1426 1413 1413 1414 1412 1413 1415 1416 1418 1419 1419 1421 1426 1432 1436
1481 1478 1475 1472 1472 1472 1469 1468 1466 1464 1465 1463 1464 1467 1466 1461 1450 1442 1441 1437 1432 1431 1431 1427 1424 1421 1418 1415 1411 1408 1412 1411 1405 1408 1412 1412 1416 1416 1416 1417 1417 1420 1426 1436 1437 1434 1443 1439 1420 1417 1418 1417 1422 1421 1422 1433 1442 1440 1439 1449 1455 1450 1455 1465 1464 1461 1460 1459 1454 1451 1448 1438 1427 1415 1405 1405 1408 1408 1410 1410 1411 1415 1415 1418 1423 1426 1430 1432
1479 1475 1472 1470 1469 1469 1468 1467 1465 1464 1464 1463 1465 1466 1458 1450 1445 1444 1443 1441 1440 1439 1435 1430 1425 1425 1425 1419 1414 1414 1414 1412 1410 1410 1410 1411 1412 1411 1412 1412 1412 1415 1419 1428 1432 1431 1439 1432 1413 1415 1417 1412 1416 1417 1417 1427 1436 1437 1440 1444 1439 1435 1442 1456 1461 1452 1453 1464 1457 1443 1439 1430 1423 1416 1405 1404 1408 1407 1408 1408 1409 1411 1412 1417 1421 1423 1425 1427
1478 1473 1470 1468 1467 1467 1467 1466 1465 1464 1463 1463 1464 1460 1452 1447 1444 1443 1443 1442 1443 1441 1440 1440 1433 1430 1433 1429 1423 1422 1420 1417 1416 1416 1415 1414 1412 1410 1410 1409 1408 1410 1412 1418 1422 1422 1428 1427 1413 1412 1417 1411 1408 1414 1415 1415 1422 1432 1438 1433 1430 1436 1440 1448 1460 1458 1460 1469 1455 1439 1437 1433 1431 1426 1410 1407 1411 1409 1408 1408 1407 1408 1411 1414 1416 1417 1419 1420
1479 1474 1470 1469 1468 1467 1466 1465 1463 1462 1462 1464 1463 1456 1451 1448 1443 1442 1442 1443 1444 1442 1444 1448 1439 1431 1436 1439 1432 1427 1426 1425 1423 1424 1423 1417 1413 1413 1413 1411 1407 1405 1405 1409 1415 1414 1418 1426 1416 1407 1412 1409 1405 1415 1421 1415 1412 1419 1424 1421 1427 1445 1448 1446 1456 1460 1463 1468 1454 1441 1438 1431 1428 1423 1412 1411 1412 1408 1407 1407 1407 1407 1409 1410 1411 1412 1414 1415
1480 1475 1470 1469 1469 1466 1464 1463 1461 1460 1462 1464 1464 1457 1451 1448 1444 1442 1442 1443 1444 1443 1444 1445 1439 1435 1437 1439 1436 1430 1430 1430 1429 1430 1427 1419 1417 1420 1423 1421 1414 1409 1405 1403 1408 1408 1412 1423 1420 1406 1404 1406 1406 1415 1424 1421 1414 1413 1418 1419 1420 1430 1436 1439 1443 1444 1452 1461 1455 1449 1441 1427 1417 1413 1407 1408 1407 1404 1405 1404 1404 1403 1403 1405 1406 1407 1410 1412
1481 1476 1470 1469 1469 1465 1462 1460 1459 1461 1462 1461 1461 1456 1451 1448 1446 1443 1442 1443 1443 1443 1443 1442 1440 1441 1438 1436 1436 1433 1430 1429 1429 1431 1429 1421 1420 1424 1427 1426 1422 1416 1409 1402 1402 1404 1408 1417 1420 1410 1404 1407 1411 1412 1414 1417 1416 1417 1421 1423 1421 1421 1423 1429 1433 1430 1436 1448 1451 1452 1444 1421 1406 1403 1400 1399 1399 1399 1399 1400 1399 1397 1397 1400 1401 1402 1404 1405
1483 1479 1471 1469 1469 1464 1460 1459 1459 1461 1461 1459 1457 1455 1452 1449 1446 1443 1443 1443 1442 1441 1442 1441 1441 1441 1438 1437 1436 1432 1431 1431 1429 1429 1429 1425 1424 1429 1431 1429 1426 1419 1411 1408 1408 1408 1409 1412 1415 1412 1407 1408 1407 1400 1398 1403 1406 1410 1416 1417 1418 1419 1422 1434 1439 1428 1425 1432 1434 1440 1438 1415 1398 1396 1393 1391 1393 1392 1392 1394 1394 1392 1392 1394 1395 1396 1398 1399
1485 1480 1472 1470 1469 1464 1461 1460 1460 1460 1460 1459 1457 1454 1452 1450 1447 1445 1443 1442 1442 1440 1439 1439 1439 1438 1437 1438 1436 1434 1435 1435 1431 1428 1428 1427 1429 1435 1435 1431 1427 1421 1416 1418 1417 1411 1408 1408 1409 1407 1402 1402 1398 1391 1390 1393 1395 1401 1406 1407 1411 1414 1418 1429 1436 1428 1422 1424 1422 1428 1430 1410 1390 1388 1387 1386 1386 1386 1386 1388 1388 1388 1388 1389 1390 1392 1393 1394
1484 1478 1471 1471 1470 1466 1465 1464 1463 1464 1462 1460 1457 1454 1452 1451 1449 1447 1445 1444 1444 1442 1440 1439 1438 1438 1438 1438 1437 1438 1437 1435 1432 1431 1430 1431 1432 1435 1435 1430 1427 1422 1420 1422 1420 1414 1411 1408 1409 1408 1400 1395 1392 1389 1388 1388 1392 1399 1401 1400 1403 1407 1408 1410 1416 1418 1419 1421 1422 1429 1431 1409 1387 1383 1384 1383 1382 1382 1383 1384 1385 1386 1386 1387 1388 1389 1390 1392
1483 1476 1471 1472 1471 1468 1468 1468 1469 1469 1466 1462 1459 1455 1453 1451 1450 1449 1448 1447 1445 1444 1443 1441 1440 1440 1440 1439 1439 1439 1439 1438 1435 1434 1435 1436 1434 1434 1433 1431 1429 1427 1426 1429 1426 1424 1422 1416 1414 1417 1415 1409 1406 1402 1398 1394 1394 1397 1397 1395 1395 1397 1401 1404 1409 1415 1416 1414 1416 1425 1426 1407 1388 1383 1382 1382 1383 1382 1381 1382 1382 1384 1384 1384 1385 1386 1389 1391
1483 1477 1472 1472 1471 1470 1470 1471 1472 1471 1468 1465 1462 1458 1455 1452 1451 1451 1449 1447 1446 1445 1445 1443 1442 1441 1439 1439 1440 1440 1440 1441 1440 1438 1437 1437 1435 1434 1433 1433 1432 1430 1430 1429 1426 1426 1427 1421 1416 1420 1423 1422 1418 1411 1403 1399 1397 1395 1392 1391 1391 1391 1396 1401 1408 1415 1418 1415 1410 1412 1414 1402 1389 1384 1381 1380 1382 1382 1380 1380 1380 1381 1381 1381 1382 1383 1386 1388
1485 1481 1476 1473 1471 1471 1472 1472 1472 1472 1469 1469 1466 1462 1459 1456 1452 1451 1449 1447 1446 1446 1445 1444 1441 1441 1441 1442 1443 1443 1441 1441 1443 1442 1440 1439 1437 1435 1435 1434 1433 1432 1429 1427 1424 1423 1422 1418 1414 1416 1417 1416 1413 1405 1394 1390 1393 1393 1390 1389 1388 1388 1389 1395 1403 1407 1410 1413 1408 1401 1401 1399 1392 1387 1384 1382 1381 1380 1378 1378 1378 1377 1377 1378 1379 1380 1381 1383
1487 1485 1480 1478 1476 1473 1472 1471 1472 1473 1471 1471 1470 1465 1461 1459 1454 1451 1450 1448 1448 1447 1445 1443 1442 1444 1446 1445 1445 1445 1444 1443 1444 1443 1441 1441 1439 1437 1437 1435 1433 1432 1429 1426 1425 1423 1425 1424 1417 1413 1413 1410 1410 1406 1395 1387 1384 1383 1386 1387 1386 1385 1387 1391 1394 1394 1397 1407 1407 1396 1394 1398 1394 1387 1384 1382 1380 1379 1377 1375 1375 1374 1374 1375 1376 1376 1377 1378
1487 1485 1482 1483 1482 1479 1476 1474 1473 1474 1473 1472 1470 1465 1462 1460 1457 1455 1452 1450 1449 1449 1448 1446 1446 1447 1448 1447 1447 1448 1446 1445 1443 1442 1442 1442 1439 1438 1437 1434 1433 1432 1429 1428 1426 1426 1431 1429 1418 1413 1412 1407 1404 1402 1395 1388 1381 1376 1378 1381 1381 1383 1384 1385 1386 1387 1389 1395 1396 1390 1390 1394 1390 1384 1380 1378 1376 1374 1373 1373 1374 1373 1372 1373 1372 1373 1374 1374
1487 1485 1482 1483 1483 1481 1479 1477 1475 1475 1474 1472 1469 1466 1465 1463 1460 1458 1456 1454 1452 1450 1450 1451 1450 1449 1449 1447 1447 1449 1449 1447 1445 1443 1443 1443 1441 1440 1439 1436 1434 1432 1431 1431 1428 1427 1431 1428 1419 1416 1413 1406 1401 1397 1390 1386 1382 1376 1374 1374 1374 1377 1377 1376 1379 1382 1383 1383 1383 1384 1387 1387 1382 1377 1373 1371 1369 1369 1369 1371 1372 1371 1370 1370 1370 1371 1371 1371
1486 1485 1483 1483 1482 1480 1479 1477 1477 1476 1473 1471 1469 1467 1466 1466 1464 1462 1459 1459 1457 1453 1451 1453 1452 1450 1449 1448 1448 1448 1447 1446 1446 1445 1444 1444 1443 1442 1441 1439 1436 1435 1435 1435 1431 1429 1432 1430 1421 1418 1417 1409 1399 1392 1389 1385 1382 1378 1374 1371 1369 1370 1371 1370 1372 1377 1382 1383 1381 1382 1387 1385 1377 1371 1368 1366 1366 1367 1368 1368 1368 1368 1367 1367 1368 1368 1368 1368
1485 1484 1484 1483 1481 1479 1478 1477 1476 1477 1474 1471 1469 1467 1467 1466 1465 1465 1461 1458 1458 1456 1453 1454 1452 1449 1448 1447 1447 1446 1443 1443 1444 1442 1441 1443 1443 1442 1440 1438 1437 1438 1438 1436 1434 1431 1433 1432 1424 1422 1425 1415 1399 1395 1395 1388 1382 1379 1374 1369 1366 1365 1365 1365 1366 1369 1375 1380 1381 1383 1386 1382 1372 1367 1368 1367 1367 1368 1368 1366 1365 1365 1365 1365 1365 1365 1364 1365
1484 1483 1483 1484 1481 1477 1477 1477 1476 1477 1475 1471 1469 1468 1468 1466 1464 1466 1464 1457 1454 1455 1454 1453 1452 1450 1448 1447 1445 1444 1442 1441 1440 1439 1439 1438 1438 1438 1438 1436 1437 1438 1438 1436 1435 1431 1432 1434 1430 1429 1430 1418 1403 1401 1398 1393 1391 1381 1364 1357 1359 1360 1360 1361 1362 1362 1363 1369 1376 1377 1375 1369 1363 1364 1369 1369 1368 1368 1366 1364 1363 1362 1362 1363 1362 1362 1362 1362